Location: ????????
(55.0559°N, 39.1270°E)
Time: 08:34:17
(UTC+00:00)

USA 267 - Pass Details

Date: 15 November 2025
Orbit: 1100 x 1108 km, 123.0° (Epoch: 21 November)

Event Time Altitude Azimuth Distance (km) Brightness Sun altitude
Rises 01:31:41 0° 62° (ENE) 3,926 7.2 -28.8°
Reaches altitude 10° 01:34:22 10° 70° (ENE) 2,964 6.4 -28.4°
Maximum altitude 01:40:29 41° 139° (SE) 1,546 4.2 -27.6°
Enters shadow 01:44:05 23° 194° (SSW) 2,145 4.6 -27.1°
